Regional Weather Roundup
Issued by NWS

Home | Current Version | Previous Version | Text Only | Print | Product List | Glossary On
Versions: 1 2 3 4 5 6 7 8 9 10 11 12 13 14 15 16 17 18 19 20 21 22 23 24 25 26 27 28 29 30 31 32 33 34 35 36 37 38 39 40 41 42 43 44 45 46 47 48 49 50
000
ASUS44 KOUN 221410
RWROK

WEATHER ROUNDUP FOR OKLAHOMA
NATIONAL WEATHER SERVICE NORMAN OK
800 AM CST SUN JAN 22 2017

NOTE: "FAIR" INDICATES FEW OR NO CLOUDS BELOW 12,000 FEET WITH NO
      SIGNIFICANT WEATHER AND/OR OBSTRUCTIONS TO VISIBILITY.

OKZ001>007-009>012-014-015-017-221500-
NORTHWEST OKLAHOMA AND THE PANHANDLE

CITY           SKY/WX    TMP DP  RH WIND       PRES   REMARKS
GAGE           CLEAR     39  36  89 N17       29.73R WCI  30
GUYMON         CLEAR     34  29  82 NW8       29.82R WCI  27
ENID/WOODRING  LGT RAIN  45  45 100 NW22      29.61R
$$

OKZ016-021>023-033>039-044-045-221500-
SOUTHWEST OKLAHOMA

CITY           SKY/WX    TMP DP  RH WIND       PRES   REMARKS
LAWTON/REGL    CLOUDY    50  43  77 N22G29    29.59R
LAWTON/FT SILL CLOUDY    50  45  81 N17G28    29.59R
FREDERICK      CLOUDY    49  43  80 N20       29.62R
CLINTON        PTCLDY    44  39  82 N18G28    29.67R
HOBART         CLOUDY    47  43  86 N21G28    29.65R
ALTUS AFB      CLOUDY    48  41  76 N20G28    29.67R
$$

OKZ018>020-024>031-221500-
CENTRAL OKLAHOMA

CITY           SKY/WX    TMP DP  RH WIND       PRES   REMARKS
OKLAHOMA CITY  LGT RAIN  48  45  89 N30G40    29.53R
OKC/WILEY POST LGT RAIN  48  47  96 N23G36    29.55R
OKC/TINKER AFB LGT RAIN  48  46  93 N21G30    29.52R
STILLWATER     LGT RAIN  47  45  93 NW18G30   29.56R
GUTHRIE        LGT RAIN  47  46  97 N14G29    29.57R
$$

OKZ008-013-054>072-221500-
NORTHEAST OKLAHOMA

CITY           SKY/WX    TMP DP  RH WIND       PRES   REMARKS
TULSA          RAIN      50  50 100 N17       29.49R
TULSA/JONES    RAIN      50  48  93 N12G18    29.49R
PONCA CITY     CLOUDY    47  43  86 N15G23    29.59R
BARTLESVILLE   RAIN      48  47  96 N7G16     29.54R FOG
MUSKOGEE       LGT RAIN  52  50  93 N16       29.42F
$$

OKZ032-040>043-046>053-073>077-221500-
SOUTH CENTRAL/SOUTHEAST OKLAHOMA

CITY           SKY/WX    TMP DP  RH WIND       PRES   REMARKS
ARDMORE/DWNTWN CLOUDY    46  43  87 N9        29.49R
MCALESTER      MOCLDY    51  44  77 NW9       29.42R
$$




USA.gov is the U.S. government's official web portal to all federal, state and local government web resources and services.